Dewpoint
51 54 59 62 62 63 63 64 63 63 63 64 63 63 63 63 63 63 62 62 62 62 61 61 60 59 58 57 57 57 58 52
51 52 52 55 58 61 62 63 63 63 62 62 61 61 60 60 62 61 61 61 61 60 60 60 59 58 57 56 56 56 56 51
52 51 52 52 50 57 59 61 62 62 61 60 60 57 56 58 58 59 60 59 59 59 58 57 56 57 56 54 54 50 50 48
54 56 54 52 47 52 53 52 54 55 56 57 54 57 57 55 57 58 58 58 57 57 56 55 54 47 51 54 50 46 47 44
52 59 58 55 52 48 48 49 51 53 56 57 55 56 55 54 53 54 55 56 52 54 52 50 49 49 46 45 44 45 43 42
52 60 60 57 51 48 48 48 50 51 54 55 53 52 52 52 50 49 47 46 47 48 47 48 51 50 47 45 43 42 37 40
50 57 62 56 55 50 50 51 50 53 52 52 52 51 50 49 48 47 45 45 45 45 45 46 46 46 44 42 40 38 38 39
50 55 61 57 50 51 50 51 50 50 48 48 51 52 51 50 48 46 45 43 43 45 46 46 46 43 43 42 41 37 35 37
50 55 59 57 50 49 47 46 46 45 45 48 49 50 48 49 46 46 45 45 47 46 45 45 45 45 42 40 39 40 38 37
48 54 58 55 48 47 45 44 44 43 44 45 46 48 48 48 46 46 46 47 46 45 44 44 44 43 43 41 39 36 36 37
48 54 56 53 49 46 46 47 46 43 44 43 43 45 45 46 46 45 47 46 47 47 45 45 44 44 42 42 40 37 37 35
49 53 53 51 48 46 43 42 40 41 40 40 43 44 44 45 45 45 45 44 44 45 47 46 46 45 43 41 43 39 38 38
50 50 49 45 42 39 37 38 38 38 39 42 43 43 43 42 41 40 42 40 42 45 45 45 46 46 45 45 45 44 42 39
41 41 40 39 37 39 40 41 40 41 42 41 40 39 39 38 39 39 39 39 41 42 43 43 44 45 44 43 41 40 41 41
39 40 41 42 41 39 39 39 39 37 38 38 38 40 39 39 39 38 39 40 39 41 41 41 41 42 43 42 40 38 39 39
41 41 40 41 42 39 40 39 38 39 40 40 41 41 38 35 34 34 38 40 41 41 38 42 42 39 39 38 41 44 42 41
43 40 41 41 42 41 41 40 40 40 39 38 37 33 33 32 32 34 38 39 39 41 43 43 42 42 41 40 40 40 40 39
41 40 39 40 41 42 41 40 39 36 36 35 33 33 32 32 32 36 38 40 40 42 41 40 40 39 39 38 37 36 35 34
41 40 40 39 39 39 38 37 37 36 36 34 35 33 31 32 35 38 38 41 40 40 40 40 39 38 37 37 38 37 36 35
42 42 40 38 39 39 39 40 38 38 36 36 34 32 33 34 37 38 39 41 41 39 39 39 38 36 35 34 33 33 32 29
Wind_Speed
12 11 10 8 8 8 8 9 8 7 8 7 7 7 7 7 8 8 8 8 7 6 5 3 3 2 3 4 6 10 12 10
9 9 9 9 11 9 8 7 6 6 6 5 4 7 7 6 6 7 5 5 4 3 1 1 2 3 3 5 9 14 14 7
6 7 5 4 4 9 9 8 7 8 7 5 6 4 0 7 9 5 3 2 1 1 2 5 8 10 10 8 11 13 6 10
10 5 5 3 3 3 3 3 2 3 5 4 4 5 5 5 4 8 8 7 9 10 9 10 12 10 8 11 10 8 10 9
9 6 4 0 6 6 1 1 2 2 1 6 7 6 5 6 4 5 3 10 8 9 8 8 9 9 10 10 11 10 11 9
8 7 6 3 3 3 3 2 3 3 8 3 7 7 7 8 8 9 9 8 8 9 9 8 9 10 11 10 10 10 11 8
10 9 8 5 3 3 2 3 1 5 2 5 5 7 7 8 9 9 9 10 10 10 11 12 11 11 11 11 11 11 11 10
9 9 8 6 5 1 2 2 1 3 1 5 2 4 6 8 9 10 11 10 11 12 13 14 14 14 12 12 12 13 12 12
6 7 7 8 5 3 3 1 2 2 1 2 0 3 5 8 10 11 12 12 12 13 14 14 14 14 15 13 13 14 14 14
5 6 8 9 5 2 2 2 3 4 4 3 3 4 6 9 11 12 13 14 15 15 16 16 17 17 16 15 16 14 15 15
4 6 7 7 5 4 1 3 6 6 4 6 3 7 7 9 11 14 13 15 15 16 17 16 18 19 20 18 16 17 16 17
1 4 4 0 3 3 5 5 7 5 6 6 7 10 9 11 13 14 15 16 16 16 17 18 19 20 23 22 19 17 16 17
6 6 5 4 3 5 5 5 6 8 7 7 8 8 12 13 15 15 15 16 16 16 17 19 19 19 20 20 21 21 21 19
7 6 5 5 3 6 4 7 8 8 8 9 10 8 11 12 13 15 18 17 17 17 18 18 19 18 20 21 24 22 20 23
8 7 7 8 7 5 7 8 7 9 9 14 14 15 15 14 14 14 17 18 18 16 17 19 20 19 20 21 24 25 20 19
8 7 6 7 8 7 6 7 11 13 14 14 16 19 19 16 17 17 16 17 17 16 16 17 18 21 19 20 19 16 13 21
6 5 5 6 6 5 8 12 13 14 15 14 17 17 18 19 18 18 16 16 15 14 10 12 12 12 11 14 16 16 14 6
5 7 8 6 8 9 10 12 12 13 15 16 16 18 19 19 19 16 15 13 9 8 7 7 7 7 7 8 6 4 6 5
9 10 12 11 10 10 11 13 14 15 17 17 20 20 20 19 18 14 12 7 4 4 5 5 2 3 4 3 2 3 3 2
9 12 14 15 14 14 13 15 15 16 18 19 19 19 18 18 14 10 8 6 4 3 4 4 5 4 4 6 6 4 4 4
Wind_Direction
138 136 126 126 119 107 90 80 83 85 88 93 93 92 88 86 87 82 77 71 66 68 72 75 68 39 357 330 307 296 292 303
135 149 142 154 141 114 106 107 110 112 117 119 143 154 140 134 124 83 72 73 80 95 118 212 245 243 249 274 283 281 264 288
147 130 106 90 78 119 153 148 171 165 165 162 236 238 179 165 86 96 112 122 127 208 261 260 253 240 224 232 266 264 321 286
146 143 105 99 96 105 124 137 116 38 27 11 333 13 18 324 175 178 190 200 214 213 213 239 249 277 219 219 255 335 296 287
153 147 139 285 64 12 284 298 54 89 76 5 358 344 19 315 335 225 226 206 273 215 224 254 339 308 306 308 298 286 272 288
163 154 171 190 304 333 11 253 41 307 40 353 353 338 356 352 332 331 309 322 321 292 305 304 284 283 286 282 277 276 274 283
169 175 198 187 206 324 331 308 215 27 337 41 4 343 357 337 339 318 320 312 304 308 307 302 294 280 269 275 274 271 272 272
186 191 198 196 237 207 292 216 265 218 97 62 40 348 346 323 324 316 310 312 312 314 311 307 300 296 278 263 267 274 264 257
203 201 191 206 211 219 284 329 301 269 264 173 277 295 325 312 307 309 309 316 307 291 292 288 282 282 282 262 258 256 258 262
214 207 199 204 223 211 273 268 268 260 266 297 311 307 302 299 298 301 306 305 297 296 293 289 285 281 272 271 275 257 251 242
250 199 211 204 184 267 227 258 247 265 310 288 321 309 303 297 295 297 302 294 290 290 289 285 280 276 273 272 259 262 262 247
223 177 191 145 296 242 254 246 265 271 275 304 337 317 322 308 298 291 293 290 289 291 295 293 290 287 287 283 286 273 250 251
74 120 45 296 298 316 299 290 316 289 303 358 322 337 322 312 306 307 301 294 297 297 291 284 281 281 277 272 262 256 254 252
76 80 50 14 12 346 332 316 306 317 290 341 302 326 304 304 318 303 303 300 295 289 286 284 279 277 276 279 276 271 252 236
69 69 58 44 360 5 342 307 279 304 320 306 309 307 307 305 296 307 300 296 289 293 294 289 286 283 283 276 278 272 276 262
75 58 47 41 27 8 345 321 310 322 295 310 324 309 297 308 310 308 303 298 293 291 290 308 304 291 288 283 290 308 295 287
42 20 21 22 358 333 319 316 320 319 311 304 321 308 318 314 316 313 308 300 304 306 333 346 337 333 347 339 320 306 312 321
9 347 341 339 335 331 328 318 308 312 316 316 317 321 315 316 317 313 299 293 326 2 2 13 7 13 3 11 10 358 348 353
340 340 332 335 328 316 315 315 317 314 321 323 323 317 317 314 319 307 304 12 6 358 347 2 333 322 302 305 211 172 175 191
327 325 320 330 327 324 322 324 324 325 329 327 318 315 316 314 310 328 3 36 132 249 355 288 268 281 277 264 279 260 245 271